Weather History for KEUG - June, 2013

Change the Weather History Date:

Sunday, June 23, 2013

  Actual Average Record
Temperature  
Mean Temperature 68 °F 62 °F  
Max Temperature 76 °F 75 °F 97 °F (1992)
Min Temperature 59 °F 49 °F 34 °F (2007)
Degree Days  
Heating Degree Days 0 4  
Month to date heating degree days 85 134  
Since 1 June heating degree days 85 134  
Since 1 July heating degree days 4346 4783  
Cooling Degree Days 3 1  
Month to date cooling degree days 11 8  
Year to date cooling degree days 16 13  
Since 1 June cooling degree days 11 8  
Growing Degree Days 17 (Base 50)    
Moisture  
Dew Point 57 °F    
Average Humidity 70    
Maximum Humidity 90    
Minimum Humidity 49    
Precipitation  
Precipitation 0.01 in 0.03 in 0.60 in (1969)
Month to date precipitation 0.27 1.31  
Year to date precipitation 8.84 24.67  
Snow  
Snow 0.00 in - - ()
Month to date snowfall 0.0  
Since 1 June snowfall 0.0  
Since 1 July snowfall 0.0  
Snow Depth 0.00 in    
Sea Level Pressure  
Sea Level Pressure 29.75 in    
Wind  
Wind Speed 3 mph (WSW)    
Max Wind Speed 17 mph    
Max Gust Speed 23 mph    
Visibility 10 miles    
Events Rain    
T = Trace of Precipitation, MM = Missing Value Source: NWS Daily Summary

Daily Weather History Graph

Daily Weather History Graph

Search for Another Location

Airport or City:

Trip Planner

Search our weather history database for the weather conditions in past years. The results will help you decide how hot, cold, wet, or windy it might be!

Date:

Astronomy

Jun. 23, 2013 Rise Set
Actual Time 5:30 AM PDT 9:00 PM PDT
Civil Twilight 4:53 AM PDT 9:36 PM PDT
Nautical Twilight 4:05 AM PDT 10:24 PM PDT
Astronomical Twilight 3:03 AM PDT 11:26 PM PDT
Moon 9:13 PM PDT (6/23) 5:56 AM PDT (6/23)
Length of Visible Light 16h 42m
Length of Day
15h 30m
Full, 100% of the Moon is Illuminated
Jun 23
Full
Jun 29
Last Quarter
Jul 8
New
Jul 15
First Quarter
Jul 22
Full

Hourly Weather History & Observations

Time (PDT) Temp. Dew Point Humidity Pressure Visibility Wind Dir Wind Speed Gust Speed Precip Events Conditions
12:54 AM 62.1 °F 54.0 °F 75% 29.88 in 10.0 mi West 4.6 mph - 0.00 in   Mostly Cloudy
1:54 AM 61.0 °F 54.0 °F 78% 29.86 in 10.0 mi Calm Calm - 0.00 in Rain Light Rain
2:54 AM 60.1 °F 55.9 °F 86% 29.85 in 10.0 mi Calm Calm - 0.00 in   Overcast
3:34 AM 59.0 °F 55.4 °F 88% 29.84 in 10.0 mi SSW 3.5 mph - N/A   Overcast
3:54 AM 59.0 °F 55.9 °F 90% 29.83 in 10.0 mi SW 3.5 mph - N/A   Mostly Cloudy
4:28 AM 59.0 °F 55.4 °F 88% 29.82 in 10.0 mi Calm Calm - N/A   Mostly Cloudy
4:41 AM 59.0 °F 55.4 °F 88% 29.82 in 10.0 mi Calm Calm - N/A   Mostly Cloudy
4:54 AM 59.0 °F 55.0 °F 87% 29.81 in 10.0 mi Calm Calm - N/A   Overcast
5:54 AM 60.1 °F 57.0 °F 90% 29.80 in 10.0 mi Calm Calm - N/A   Overcast
6:54 AM 62.1 °F 55.9 °F 80% 29.79 in 10.0 mi Calm Calm - N/A   Overcast
7:54 AM 62.1 °F 55.0 °F 78% 29.79 in 10.0 mi South 3.5 mph - N/A   Overcast
8:54 AM 63.0 °F 55.0 °F 75% 29.79 in 10.0 mi Calm Calm - N/A   Overcast
9:54 AM 64.9 °F 54.0 °F 68% 29.78 in 10.0 mi SSE 4.6 mph - N/A   Overcast
10:54 AM 66.9 °F 55.9 °F 68% 29.76 in 10.0 mi Calm Calm - N/A   Overcast
11:54 AM 70.0 °F 57.0 °F 63% 29.74 in 10.0 mi Variable 3.5 mph - N/A   Overcast
12:54 PM 73.0 °F 57.0 °F 57% 29.72 in 10.0 mi Calm Calm - N/A   Overcast
1:54 PM 73.9 °F 54.0 °F 50% 29.70 in 10.0 mi WNW 4.6 mph - N/A   Overcast
2:54 PM 73.9 °F 55.0 °F 52% 29.68 in 10.0 mi West 6.9 mph - N/A   Overcast
3:54 PM 72.0 °F 62.1 °F 71% 29.68 in 10.0 mi West 6.9 mph - 0.00 in Rain Light Rain
4:54 PM 66.9 °F 62.1 °F 84% 29.68 in 7.0 mi WNW 5.8 mph - 0.01 in Rain Light Rain
5:54 PM 69.1 °F 61.0 °F 75% 29.67 in 10.0 mi SW 4.6 mph - 0.00 in   Mostly Cloudy
6:54 PM 72.0 °F 59.0 °F 64% 29.67 in 10.0 mi NW 5.8 mph - 0.00 in   Mostly Cloudy
7:54 PM 68.0 °F 59.0 °F 73% 29.66 in 10.0 mi WNW 5.8 mph - N/A   Mostly Cloudy
8:54 PM 63.0 °F 60.1 °F 90% 29.67 in 10.0 mi Calm Calm - 0.01 in   Overcast
9:54 PM 63.0 °F 59.0 °F 87% 29.68 in 10.0 mi SW 4.6 mph - N/A   Overcast
10:54 PM 62.1 °F 55.9 °F 80% 29.71 in 10.0 mi SW 20.7 mph 25.3 mph N/A   Mostly Cloudy
11:54 PM 60.1 °F 54.0 °F 80% 29.73 in 10.0 mi WSW 13.8 mph - N/A   Mostly Cloudy